Weather History for KSAC - March, 2013

Change the Weather History Date:

Friday, March 29, 2013

  Actual Average Record
Temperature  
Mean Temperature 65 °F -  
Max Temperature 79 °F 67 °F 84 °F (2015)
Min Temperature 50 °F 45 °F 33 °F (1967)
Degree Days  
Heating Degree Days 0    
Cooling Degree Days 0    
Growing Degree Days 14 (Base 50)    
Moisture  
Dew Point 48 °F    
Average Humidity 61    
Maximum Humidity 89    
Minimum Humidity 32    
Precipitation  
Precipitation 0.00 in 0.07 in 0.72 in (1982)
Month to date precipitation 0.66 2.63  
Year to date precipitation 1.98 9.74  
Since 1 July precipitation 13.27  
Sea Level Pressure  
Sea Level Pressure 30.06 in    
Wind  
Wind Speed 5 mph (NNW)    
Max Wind Speed 10 mph    
Max Gust Speed 13 mph    
Visibility 10 miles    
Events      
T = Trace of Precipitation, MM = Missing Value Source: NWS Daily Summary

Daily Weather History Graph

Daily Weather History Graph

Search for Another Location

Airport or City:

Trip Planner

Search our weather history database for the weather conditions in past years. The results will help you decide how hot, cold, wet, or windy it might be!

Date:

Astronomy

Mar. 29, 2013 Rise Set
Actual Time 6:54 AM PDT 7:26 PM PDT
Civil Twilight 6:28 AM PDT 7:53 PM PDT
Nautical Twilight 5:57 AM PDT 8:24 PM PDT
Astronomical Twilight 5:24 AM PDT 8:57 PM PDT
Moon 10:30 PM PDT (3/29) 8:09 AM PDT (3/29)
Length of Visible Light 13h 25m
Length of Day
12h 31m
Waning Gibbous, 93% of the Moon is Illuminated
Mar 29
Waning Gibbous
Apr 2
Last Quarter
Apr 10
New
Apr 18
First Quarter
Apr 25
Full

Hourly Weather History & Observations

Time (PDT) Temp. Dew Point Humidity Pressure Visibility Wind Dir Wind Speed Gust Speed Precip Events Conditions
12:53 AM 55.9 °F 50.0 °F 80% 30.08 in 10.0 mi NNW 6.9 mph - N/A   Clear
1:53 AM 54.0 °F 48.9 °F 83% 30.09 in 10.0 mi NNW 6.9 mph - N/A   Clear
2:53 AM 53.1 °F 48.9 °F 86% 30.09 in 10.0 mi NW 5.8 mph - N/A   Clear
3:53 AM 53.1 °F 48.0 °F 83% 30.08 in 10.0 mi NNW 8.1 mph - N/A   Clear
4:53 AM 52.0 °F 46.9 °F 83% 30.07 in 10.0 mi NNW 4.6 mph - N/A   Clear
5:53 AM 51.1 °F 48.0 °F 89% 30.09 in 10.0 mi NW 4.6 mph - N/A   Clear
6:53 AM 50.0 °F 46.0 °F 86% 30.09 in 10.0 mi NNW 5.8 mph - N/A   Clear
7:53 AM 52.0 °F 48.0 °F 86% 30.10 in 10.0 mi NNW 5.8 mph - N/A   Clear
8:53 AM 55.9 °F 48.0 °F 75% 30.11 in 10.0 mi NNW 5.8 mph - N/A   Clear
9:53 AM 60.1 °F 48.9 °F 67% 30.11 in 10.0 mi NNW 6.9 mph - N/A   Clear
10:53 AM 64.0 °F 48.9 °F 58% 30.11 in 10.0 mi North 6.9 mph - N/A   Clear
11:53 AM 69.1 °F 48.0 °F 47% 30.10 in 10.0 mi North 5.8 mph - N/A   Clear
12:53 PM 72.0 °F 48.0 °F 43% 30.08 in 10.0 mi NNW 6.9 mph - N/A   Clear
1:53 PM 75.0 °F 48.0 °F 38% 30.06 in 10.0 mi NNW 8.1 mph - N/A   Clear
2:53 PM 77.0 °F 46.9 °F 34% 30.04 in 10.0 mi Variable 3.5 mph - N/A   Clear
3:53 PM 78.1 °F 46.9 °F 33% 30.02 in 10.0 mi Calm Calm - N/A   Clear
4:53 PM 79.0 °F 46.0 °F 31% 30.01 in 10.0 mi NNW 4.6 mph - N/A   Clear
5:53 PM 78.1 °F 43.0 °F 29% 30.00 in 10.0 mi West 8.1 mph - N/A   Clear
6:53 PM 75.0 °F 44.1 °F 33% 30.00 in 10.0 mi WNW 5.8 mph - N/A   Clear
7:53 PM 68.0 °F 46.9 °F 47% 30.00 in 10.0 mi Calm Calm - N/A   Clear
8:53 PM 64.0 °F 48.0 °F 56% 30.01 in 10.0 mi Calm Calm - N/A   Clear
9:53 PM 62.1 °F 48.0 °F 60% 30.02 in 10.0 mi Calm Calm - N/A   Clear
10:53 PM 60.1 °F 48.0 °F 64% 30.03 in 10.0 mi Calm Calm - N/A   Clear
11:53 PM 55.9 °F 48.9 °F 77% 30.02 in 10.0 mi Calm Calm - N/A   Clear